Temp
14 14 14 14 13 12 11 12 12 12 11 11 11 12 12 13 13 13 13 14 13 14 13 13 13 13 13 13 12 12 12 12 11
14 13 13 13 13 11 11 12 12 11 11 11 11 11 12 12 13 14 14 13 13 13 13 12 12 12 12 12 12 12 12 11 10
11 12 12 12 12 12 12 12 11 11 11 11 11 11 12 12 12 13 13 13 12 12 12 12 12 12 11 11 11 11 11 10 10
10 10 12 11 11 12 12 12 11 11 11 11 11 11 11 11 11 11 11 11 11 10 11 11 12 11 11 10 10 10 9 9 9
10 9 11 11 12 12 12 12 12 11 11 11 10 10 11 11 10 11 11 10 11 12 12 12 11 11 11 10 9 9 9 9 9
10 10 12 12 12 12 12 12 11 11 11 10 10 10 10 10 10 11 11 12 12 12 11 11 11 10 10 9 9 9 9 9 8
9 10 12 12 12 11 12 12 11 11 11 10 10 11 11 10 10 11 12 12 12 12 11 11 11 10 10 9 8 9 8 8 9
10 10 10 11 11 10 12 12 11 10 10 10 10 11 11 11 11 11 12 12 12 12 11 11 11 10 9 8 8 9 9 9 9
10 10 10 9 10 11 12 11 10 10 10 10 10 11 11 11 11 11 11 12 12 12 11 11 10 9 8 8 9 9 8 9 8
10 9 9 9 11 11 12 11 10 10 10 10 10 11 11 11 11 11 11 11 11 12 11 10 9 8 8 8 9 8 8 8 8
10 10 9 10 11 11 11 10 10 10 10 10 10 10 10 11 11 11 11 11 11 12 11 9 8 8 9 9 8 8 7 7 6
11 10 10 10 11 11 10 10 10 10 10 10 11 10 10 11 11 11 11 10 10 11 10 9 8 9 9 9 9 8 7 8 7
11 11 11 11 10 10 10 10 10 10 10 10 10 10 10 10 11 10 10 10 10 11 11 9 9 9 9 9 8 7 7 7 9
11 10 11 10 10 10 10 10 10 10 10 9 10 9 10 10 11 11 11 10 10 11 11 10 10 10 9 9 7 6 8 9 9
11 10 10 10 10 9 10 10 9 9 10 9 9 9 10 10 11 11 10 10 10 11 11 10 10 10 9 8 7 6 7 9 8
11 10 10 10 9 9 9 9 9 9 9 9 9 9 9 10 10 11 10 10 10 10 11 11 10 10 10 9 7 6 8 8 8
10 10 10 10 9 9 9 9 9 9 9 9 9 9 9 9 10 10 10 10 10 10 10 11 10 9 9 9 8 7 8 8 8
10 10 10 10 9 9 9 8 9 8 8 9 9 8 8 8 9 9 9 9 9 9 9 9 9 9 8 8 8 7 7 7 7
10 10 10 10 10 9 9 8 9 9 8 8 8 9 9 8 8 9 9 9 9 9 9 9 8 8 8 8 8 7 7 7 7
10 10 10 9 9 9 9 8 8 8 8 8 8 8 9 9 9 8 9 8 9 8 8 8 8 8 8 8 7 7 6 6 6
Height
1546 1548 1550 1552 1554 1556 1556 1557 1559 1561 1562 1563 1563 1564 1565 1566 1568 1570 1571 1572 1573 1574 1575 1575 1575 1575 1576 1575 1575 1575 1574 1574 1574
1545 1548 1550 1553 1556 1556 1556 1558 1560 1562 1564 1565 1565 1566 1567 1568 1569 1571 1572 1574 1576 1576 1576 1577 1577 1577 1578 1577 1576 1576 1576 1575 1575
1545 1548 1551 1554 1556 1556 1557 1559 1561 1563 1565 1566 1567 1568 1568 1569 1570 1572 1573 1575 1577 1578 1578 1578 1579 1580 1579 1578 1578 1577 1577 1577 1578
1546 1548 1551 1555 1556 1557 1558 1560 1562 1565 1567 1568 1569 1570 1571 1570 1572 1573 1575 1577 1578 1578 1579 1581 1581 1582 1580 1580 1580 1580 1580 1580 1580
1546 1548 1552 1555 1557 1558 1559 1560 1563 1565 1568 1570 1571 1572 1573 1574 1574 1576 1577 1579 1578 1580 1582 1584 1584 1584 1583 1582 1583 1583 1583 1583 1583
1546 1548 1552 1555 1557 1559 1560 1562 1564 1566 1568 1571 1572 1573 1574 1574 1577 1578 1579 1580 1581 1582 1584 1586 1587 1586 1585 1585 1586 1586 1586 1586 1586
1546 1549 1553 1556 1558 1559 1560 1563 1565 1567 1569 1571 1573 1574 1575 1576 1578 1580 1581 1583 1584 1584 1585 1586 1588 1588 1587 1588 1588 1589 1589 1590 1590
1545 1548 1552 1555 1556 1557 1560 1563 1566 1568 1570 1572 1574 1575 1576 1578 1579 1581 1583 1585 1586 1587 1587 1588 1589 1590 1589 1590 1590 1592 1593 1593 1592
1545 1548 1551 1553 1555 1557 1560 1563 1566 1568 1571 1573 1575 1576 1577 1578 1580 1582 1585 1587 1587 1588 1590 1590 1590 1591 1590 1592 1594 1594 1594 1594 1594
1544 1547 1550 1552 1554 1557 1560 1563 1566 1569 1572 1573 1576 1577 1578 1579 1581 1583 1586 1588 1588 1590 1591 1590 1590 1591 1593 1594 1596 1596 1596 1596 1595
1543 1546 1549 1551 1554 1557 1560 1563 1567 1569 1571 1574 1576 1578 1579 1580 1582 1583 1586 1588 1589 1590 1590 1591 1591 1592 1595 1596 1597 1597 1597 1596 1596
1542 1545 1548 1551 1554 1557 1560 1563 1566 1569 1572 1574 1577 1578 1580 1581 1582 1584 1586 1588 1590 1591 1591 1592 1592 1594 1595 1596 1597 1597 1597 1597 1596
1541 1544 1547 1551 1553 1556 1559 1563 1566 1569 1572 1575 1577 1578 1580 1582 1583 1584 1586 1588 1589 1591 1593 1593 1595 1595 1597 1596 1598 1597 1597 1598 1597
1540 1543 1547 1550 1553 1556 1559 1562 1565 1568 1571 1574 1576 1578 1580 1582 1583 1584 1585 1587 1589 1590 1593 1594 1596 1596 1598 1597 1598 1597 1596 1597 1597
1538 1542 1545 1549 1552 1555 1558 1561 1564 1567 1570 1572 1575 1577 1579 1580 1583 1584 1586 1585 1589 1591 1592 1595 1595 1596 1598 1598 1598 1597 1596 1596 1597
1536 1540 1543 1547 1550 1553 1557 1560 1563 1565 1568 1571 1574 1576 1578 1580 1581 1584 1584 1585 1587 1590 1591 1593 1595 1595 1595 1596 1597 1596 1596 1596 1597
1534 1537 1540 1544 1548 1551 1554 1557 1559 1563 1566 1569 1573 1575 1578 1578 1579 1581 1583 1585 1587 1588 1591 1590 1593 1594 1594 1595 1595 1596 1596 1596 1596
1529 1533 1537 1540 1545 1547 1550 1553 1556 1560 1563 1567 1570 1573 1573 1575 1577 1578 1580 1583 1584 1587 1588 1589 1590 1592 1593 1594 1595 1595 1596 1596 1596
1526 1530 1533 1537 1540 1544 1547 1551 1554 1557 1560 1564 1566 1567 1568 1571 1574 1576 1578 1579 1580 1582 1584 1587 1589 1591 1591 1592 1593 1593 1595 1594 1594
1522 1525 1529 1533 1536 1539 1543 1546 1550 1553 1557 1559 1561 1564 1566 1567 1568 1569 1573 1577 1577 1581 1583 1584 1585 1588 1589 1590 1591 1591 1592 1592 1592
Wind_Speed
15 13 12 15 15 10 11 11 16 16 13 10 10 13 15 14 15 15 14 15 15 15 15 15 15 13 13 11 10 11 11 12 14
16 16 16 18 15 13 14 15 19 19 13 12 9 8 11 11 14 16 16 15 13 14 13 13 13 11 9 9 9 8 7 12 15
18 17 24 19 15 9 17 19 21 18 15 11 8 4 6 12 12 11 17 17 13 8 9 8 10 9 9 12 13 8 8 16 16
16 15 26 16 13 14 18 21 22 19 16 10 8 6 7 13 13 13 15 14 12 8 11 8 9 11 11 9 7 9 19 15 16
17 20 21 17 13 13 18 20 22 19 14 12 11 7 4 10 15 13 12 15 12 13 17 17 16 12 8 5 18 15 17 19 17
18 22 22 18 16 13 16 20 22 19 16 14 10 7 4 11 17 14 13 16 20 18 18 16 11 8 6 13 15 16 16 18 21
20 21 19 19 17 15 18 21 21 18 17 15 10 8 10 20 15 17 15 14 15 18 18 13 6 6 6 13 15 16 17 18 18
23 22 21 22 20 18 20 23 22 19 18 15 11 7 14 18 17 19 15 13 20 17 13 10 7 4 7 14 16 17 15 17 14
25 22 21 21 26 22 22 25 24 22 19 14 12 8 8 15 18 17 14 14 15 12 6 8 8 7 14 15 16 14 12 14 11
26 23 21 19 21 23 24 26 25 22 17 14 14 11 10 14 20 16 13 16 14 8 7 7 11 12 14 16 14 12 11 10 7
25 24 22 18 21 23 25 27 25 22 18 17 13 12 11 13 19 20 17 16 12 6 7 10 11 15 15 13 11 11 11 7 11
23 22 21 18 22 26 29 28 25 20 20 18 15 13 11 15 19 19 19 17 12 8 5 12 14 17 12 13 13 10 7 7 9
20 22 19 17 25 29 30 27 23 20 21 19 18 15 11 16 18 18 19 19 15 8 5 13 18 12 12 16 11 6 4 7 5
19 19 18 20 28 30 30 28 24 24 25 21 19 17 15 16 18 16 19 22 15 9 10 16 12 6 14 13 8 7 6 4 4
21 18 17 23 29 28 29 28 25 23 24 23 20 15 15 20 20 18 18 23 17 9 11 15 9 3 10 11 8 8 6 3 2
24 20 18 25 29 28 27 25 24 25 24 23 20 18 19 19 22 21 19 25 21 16 15 15 12 6 5 10 8 7 6 2 0
25 23 22 26 30 29 29 28 29 27 27 24 22 19 18 21 21 21 21 23 25 18 19 17 15 13 10 7 9 10 3 1 1
28 25 23 25 29 32 33 33 32 32 31 27 19 12 12 22 24 24 23 23 22 25 21 22 19 16 13 9 10 15 11 7 5
30 27 25 26 30 32 34 34 32 31 35 33 32 20 11 19 18 26 26 27 29 30 28 24 21 19 16 12 15 13 15 12 10
33 29 29 27 30 31 32 35 35 34 34 38 37 33 21 14 17 22 31 33 31 32 32 27 25 22 19 16 17 15 16 15 14
Wind_Direction
189 183 182 146 149 158 158 161 155 149 153 143 143 138 148 147 152 148 137 125 115 116 117 118 115 116 108 108 107 103 101 98 91
183 174 152 145 154 164 152 151 153 152 148 142 135 127 136 159 163 167 163 142 131 127 127 132 114 112 113 114 104 111 115 95 83
156 162 152 154 166 169 152 153 158 152 152 149 147 132 123 152 161 157 173 169 151 160 149 149 113 115 116 110 106 99 95 91 94
154 162 150 162 177 144 151 158 162 159 156 159 151 131 95 125 126 117 133 150 145 164 173 157 124 130 130 119 111 82 93 103 103
158 152 153 160 162 155 157 161 165 165 158 155 155 143 121 136 133 125 115 134 152 121 114 120 135 139 123 117 98 107 105 96 92
161 145 150 164 160 173 168 166 164 165 158 151 155 161 182 157 144 133 112 129 115 116 130 139 141 131 111 104 111 100 107 96 97
165 160 161 166 172 183 169 167 168 164 161 154 159 139 133 140 147 145 125 133 138 135 141 142 142 122 101 112 117 105 100 101 103
168 167 172 177 180 179 170 170 168 160 158 159 153 133 138 147 134 152 139 139 143 146 149 148 144 139 131 115 112 112 119 114 121
177 173 177 190 194 174 171 173 170 164 164 160 165 161 148 166 159 137 143 156 153 160 194 188 181 147 130 125 116 129 133 128 136
181 180 178 189 171 172 172 172 174 176 174 165 166 167 162 157 169 164 156 167 161 166 169 157 133 136 127 124 134 134 127 147 145
189 189 186 189 176 174 175 174 175 177 164 168 167 170 175 164 164 161 166 173 165 164 140 143 146 133 129 144 146 142 149 153 105
196 196 193 189 179 176 174 175 178 177 165 169 173 177 175 163 156 163 166 178 170 157 113 143 129 127 154 134 148 165 163 121 120
200 202 200 190 181 179 180 182 181 179 171 174 179 181 180 179 174 175 179 181 180 170 115 134 144 159 147 153 174 193 177 131 102
204 205 202 194 182 182 187 188 193 182 179 182 189 198 209 192 200 189 189 186 185 180 148 154 161 106 156 176 201 199 166 124 91
207 205 207 198 188 188 191 201 197 199 196 197 201 201 199 194 199 203 194 180 184 188 174 174 181 159 185 212 201 171 161 147 102
212 212 215 203 196 197 198 201 205 199 203 205 192 195 194 199 202 207 209 205 194 204 202 190 201 193 222 226 225 211 170 125 30
216 217 221 212 203 201 205 208 205 208 204 206 198 191 203 207 209 204 211 212 220 212 216 208 210 206 213 261 246 257 189 289 287
223 219 225 218 210 209 211 210 217 206 205 207 192 178 209 207 214 213 216 215 221 221 223 219 214 222 221 247 268 247 265 270 280
224 221 227 225 218 215 215 216 224 223 215 210 213 216 211 196 212 216 215 213 218 217 216 220 222 222 229 256 280 262 252 264 269
226 225 226 228 228 227 226 224 228 232 228 222 217 221 226 220 210 209 215 222 220 223 238 229 225 227 233 246 272 270 255 261 265